2020-061Y (46294 NORAD) Tracking and Keplerian Element Data

This shows tracking and keplerian element data for the satellite.

Feedback or suggestion? Click here.




ElementValue
Catalog46294
Name2020-061Y
Epoch Orbit316
Epoch Day268.34605215
Epoch Year2020
RAAN341.0927
Inclination97.5176
Eccentricity0.0002119
Argument of Perigee217.4315
Mean Anonmoly142.6767
Mean Motion15.10280687
Decay Rate9.3E-06
L11 46294U 20061Y 20268.34605215 .00000930 00000-0 60634-4 0 9993
L22 46294 97.5176 341.0927 0002119 217.4315 142.6767 15.10280687 3165

Live tracking and technical data element details for 2020-061Y (NORAD 46294). 2020-061Y can be tracked NOW for your location showing map with azimuth and elevation plus other details from your city location.

Track the satellite on the map from your city or location and see movement details for azimuth, elevation, latitude, longitude, range, height, and movement on the map or in text.







IsCatalogInMostPopularTable: catalog: 46294, numindb: 1
Update: records affected: 1



GetName: 46294 2020-061Y

Hit Count: updated at: Sat, 26 Sep 2020 15:18:06 GMT